This is the latest recevied weather packets stored in our database for station/object E20YUC-1. If no packets are shown the sender has not sent any weather packets the latest 1 day(s).
| Time | Temp. | Humidity | Pressure | Rain* | Wind** | Luminosity | Snow |
|---|---|---|---|---|---|---|---|
| 1778065125 | 33.89° C | 60% | 993.4 hPa | 0 mm | 0 m/s | - | - |
| 1778064827 | 33.89° C | 60% | 993.3 hPa | 0 mm | 0 m/s | - | - |
| 1778064225 | 33.89° C | 61% | 993.3 hPa | 0 mm | 0 m/s | - | - |
| 1778063625 | 33.89° C | 61% | 993.2 hPa | 0 mm | 0 m/s | - | - |
| 1778063025 | 33.89° C | 61% | 993 hPa | 0 mm | 0 m/s | - | - |
| 1778061835 | 33.89° C | 61% | 993 hPa | 0 mm | 0 m/s | - | - |
| 1778060689 | 33.33° C | 62% | 992.9 hPa | 0 mm | 0 m/s | - | - |
| 1778059787 | 32.78° C | 63% | 993 hPa | 0 mm | 0 m/s | - | - |
| 1778059487 | 32.78° C | 63% | 993 hPa | 0 mm | 0.89 m/s, 292° | - | - |
| 1778059189 | 32.78° C | 63% | 993.2 hPa | 0 mm | 0 m/s | - | - |
| 1778058887 | 32.78° C | 63% | 993.3 hPa | 0 mm | 0 m/s | - | - |
| 1778058587 | 32.78° C | 64% | 993.2 hPa | 0 mm | 0 m/s | - | - |
| 1778057987 | 32.78° C | 64% | 993.3 hPa | 0 mm | 1.34 m/s, 292° | - | - |
| 1778057689 | 32.78° C | 64% | 993.4 hPa | 0 mm | 2.24 m/s, 0° | - | - |
| 1778057087 | 33.33° C | 62% | 993.6 hPa | 0 mm | 0 m/s | - | - |
| 1778056487 | 33.89° C | 60% | 993.7 hPa | 0 mm | 2.24 m/s, 292° | - | - |
| 1778054688 | 37.78° C | 52% | 993.5 hPa | 0 mm | 0.45 m/s, 90° | - | - |
| 1778054086 | 38.33° C | 50% | 993.5 hPa | 0 mm | 0 m/s | - | - |
| 1778053486 | 38.33° C | 49% | 993.5 hPa | 0 mm | 0 m/s | - | - |
| 1778053188 | 38.89° C | 48% | 993.4 hPa | 0 mm | 0 m/s | - | - |
| 1778052886 | 38.89° C | 49% | 993.6 hPa | 0 mm | 0 m/s | - | - |
| 1778052586 | 38.89° C | 49% | 993.6 hPa | 0 mm | 0 m/s | - | - |
| 1778051986 | 39.44° C | 48% | 993.9 hPa | 0 mm | 0 m/s | - | - |
| 1778051688 | 39.44° C | 48% | 993.8 hPa | 0 mm | 0 m/s | - | - |
| 1778051386 | 39.44° C | 48% | 993.8 hPa | 0 mm | 0.89 m/s, 22° | - | - |
* Rain latest hour (hover to see other rain measurements)
** Current wind speed in m/s (hover to see current wind gust speed)